{"data":{"norad_id":65581,"epoch":"2026-05-25T03:28:43.926240Z","epoch_age_seconds":65737,"freshness":"FRESH","line1":"1 65581U 25203S   26145.14495285  .00000123  00000+0  99068-4 0  9994","line2":"2 65581  81.3039  31.8486 0008790 255.1859 104.8325 13.84772514 35520","mean_motion":13.84772514,"eccentricity":0.000879,"inclination_deg":81.3039,"raan_deg":31.8486,"arg_perigee_deg":255.1859,"mean_anomaly_deg":104.8325,"bstar":9.9068e-5,"rev_number":3552,"period_min":103.98819917652,"perigee_km":940.56906708866,"apogee_km":953.44667176911,"semimajor_km":7325.1448694289,"source":"CELESTRAK","updated_at":"2026-05-25T13:38:25.171806Z"}}